NOAA NWS Hourly Roundups by Site

Regional Weather Roundup for Phoenix, AZ

To Select Another Site Choose from List

Select Site:  

000
ASUS45 KPSR 182210
RWRAZ

ARIZONA HOURLY REGIONAL WEATHER ROUNDUP
NATIONAL WEATHER SERVICE PHOENIX AZ
300 PM MST SAT SEP 18 2021

NOTE: FAIR INDICATES FEW OR NO CLOUDS BELOW 12,000 FEET WITH NO
SIGNIFICANT WEATHER AND/OR OBSTRUCTIONS TO VISIBILITY.

AZZ001>003-036-182300-
NORTHWEST ARIZONA

CITY           SKY/WX    TMP DP  RH WIND       PRES   REMARKS
BULLHEAD CITY  PTSUNNY  100  52  19 SW12      29.83F
KINGMAN        SUNNY     85  55  35 SW12G23   30.06F
$$

AZZ004>008-015-016-018-182300-
NORTH CENTRAL ARIZONA

CITY           SKY/WX    TMP DP  RH WIND       PRES   REMARKS
GRAND CANYON   RAIN      58  56  93 W8        30.30R
WILLIAMS       PTSUNNY   72  55  56 S6        30.26F
PRESCOTT       LGT RAIN  75  62  64 SW7       30.16F
FLAGSTAFF      PTSUNNY   73  50  44 W13G26    30.28F
PAYSON         PTSUNNY   82  52  34 S9G16     30.19F
PAGE           LGT RAIN  67  60  78 N13       30.15F
$$

AZZ009>014-017-182300-
NORTHEAST ARIZONA

CITY           SKY/WX    TMP DP  RH WIND       PRES   REMARKS
WINSLOW        MOSUNNY   89  50  26 S22G29    30.11F
SAINT JOHNS    LGT RAIN  76  50  40 SE8       30.22F
WINDOW ROCK    LGT RAIN  68  51  54 S10G23    30.31R
SHOW LOW       PTSUNNY   77  46  33 SW15      30.27F
$$

AZZ540-542>544-546-548-182300-
GREATER PHOENIX AREA

CITY           SKY/WX    TMP DP  RH WIND       PRES   REMARKS
PHOENIX        HVY RAIN  83  71  67 W18       29.86F
BUCKEYE          N/A     95  66  38 E20G26    29.88F HAZE
GLENDALE       PTSUNNY   88  66  48 SE13      29.92S
LUKE AFB       PTSUNNY   90  67  47 SE15      29.87F
DEER VALLEY    PTSUNNY   91  60  35 S14       29.93F
SCOTTSDALE     PTSUNNY   91  60  35 W9G24     29.93F
MESA-FALCON    PTSUNNY   97  61  30 W17G28    29.89F
MESA-GATEWAY   PTSUNNY   97  59  28 NW9G16    29.91F
CHANDLER       PTSUNNY   91  66  43 W20G32    29.89F
$$

AZZ539-553-182300-
SOUTHWEST MARICOPA COUNTY AND PINAL COUNTY

CITY           SKY/WX    TMP DP  RH WIND       PRES   REMARKS
CASA GRANDE    PTSUNNY   90  66  45 NW17G26   29.91F
GILA BEND      FAIR      92  65  39 CALM      29.86F
$$

AZZ503-504-507>509-182300-
SOUTHEAST ARIZONA

CITY           SKY/WX    TMP DP  RH WIND       PRES   REMARKS
TUCSON         MOSUNNY   96  57  27 CALM      29.99F
DAVIS-MONTHAN  MOSUNNY   94  58  30 CALM      29.98F
RYAN FIELD     SUNNY     93  59  31 NW5       29.96
NOGALES        MOSUNNY   92  60  34 SW8G18    30.08F
SIERRA VISTA   LGT RAIN  82  59  44 W16G22    30.15S
SAFFORD        MOSUNNY   97  51  21 S8        29.99F
$$

AZZ532-182300-
SOUTHWEST ARIZONA

CITY           SKY/WX    TMP DP  RH WIND       PRES   REMARKS
YUMA           MOSUNNY  100  49  17 W5        29.83F
$$

CAZ041-043-047-048-061-525>527-560>570-182300-
SOUTHERN CALIFORNIA

CITY           SKY/WX    TMP DP  RH WIND       PRES   REMARKS
DOWNTOWN L.A.  SUNNY     72  55  55 W7        30.02F
L.A. AIRPORT   SUNNY     70  55  59 W16       30.04F
SAN DIEGO      SUNNY     72  58  61 NW14G21   30.02F
BURBANK        SUNNY     77  52  41 S10       30.01F
ONTARIO        SUNNY     84  53  34 W13       30.00F
RIVERSIDE      SUNNY     82  53  36 W8        29.99F
PALM SPRINGS   SUNNY    102  29   7 N22G32    29.86F
EL CENTRO NAS  MOSUNNY  104  41  11 CALM      29.83F
IMPERIAL       SUNNY    102  39  11 VRB3      29.81F
BLYTHE         SUNNY    103  39  11 SW13G22   29.83F
NEEDLES        SUNNY    103  46  14 W13G23    29.85F
$$

NVZ020-UTZ003-182300-
SOUTHERN NEVADA-UTAH

CITY           SKY/WX    TMP DP  RH WIND       PRES   REMARKS
LAS VEGAS      PTSUNNY   93  32  11 W12G21    29.93F
SALT LAKE CITY PTSUNNY   77  50  38 S25G38    30.01F
$$

NMZ009-TXZ055-182300-
NEW MEXICO-WEST TEXAS

CITY           SKY/WX    TMP DP  RH WIND       PRES   REMARKS
ALBUQUERQUE    MOSUNNY   89  35  14 S8        30.18F
EL PASO        MOSUNNY   96  39  13 S9        30.07F
$$


........................KEY........................
SKY/WX - SKY CONDITION/WEATHER
TMP    - TEMPERATURE IN FAHRENHEIT
DP     - DEW POINT IN FAHRENHEIT
RH     - RELATIVE HUMIDITY IN PERCENT
WIND   - DIRECTION AND SPEED IN MILES PER HOUR (MPH)
VRB    - VARIABLE WIND DIRECTION
PRES   - MEAN SEA LEVEL PRESSURE IN INCHES OF MERCURY
         F - FALLING PRESSURE   R - RISING PRESSURE
         S - STEADY PRESSURE
VSB    - VISIBILITY IN MILES
HX     - HEAT INDEX IN FAHRENHEIT
WCI    - WIND CHILL INDEX IN FAHRENHEIT
TC     - TEMPERATURE IN CELSIUS WHICH IS ALSO KNOWN AS
         TEMPERATURE IN CENTIGRADE
AFB    - AIR FORCE BASE
         LUKE AFB IS LUKE AIR FORCE BASE
         DAVIS-MONTHAN IS DAVIS-MONTHAN AIR FORCE BASE
NAS    - NAVAL AIR STATION
         EL CENTRO NAS IS EL CENTRO NAVAL AIR STATION
N/A    - NOT AVAILABLE



 

View Past Reports for Phoenix, AZ.

Products Courtesy of NOAA-NWS
NWS Information Parsing Script by Ken True at Saratoga Weather - Script by SE Lincoln Weather.